This demonstration page uses our WeatherBlox Daily Observations layout. Learn more.

Left ArrowRight Arrow

38.88101, -77.10428

Hourly Observations for August 20, 2022

Temp ( °F °C ) Dew Point ( °F °C ) Humidity (%) Winds ( mph kmh ) Pressure ( in mb ) Visibility ( mi km ) Precip ( " mm )
12:52 am 00:52 Cloudy 77 25 68 20 74 74 SSW 8 13 30.12 1020 10 16 0.00 0.00
1:52 am 01:52 Cloudy 75 23.9 66 18.9 74 74 SSW 7 11 30.13 1020 10 16 0.00 0.00
2:52 am 02:52 Mostly Cloudy 74 23.3 66 18.9 76 76 S 8 13 30.13 1020 10 16 0.00 0.00
3:52 am 03:52 Mostly Cloudy 74 23.3 66 18.9 76 76 SSW 5 7 30.13 1020 10 16 0.00 0.00
4:52 am 04:52 Mostly Cloudy 73 22.8 66 18.9 79 79 SSE 3 6 30.12 1020 10 16 0.00 0.00
5:52 am 05:52 Partly Cloudy 73 22.8 67 19.4 81 81 Calm 30.13 1020 10 16 0.00 0.00
6:52 am 06:52 Partly Cloudy 72 22.2 67 19.4 84 84 SW 3 6 30.15 1021 10 16 0.00 0.00
7:52 am 07:52 Mostly Cloudy 73 22.8 69 20.6 87 87 Calm 30.16 1022 10 16 0.00 0.00
8:52 am 08:52 Partly Cloudy 76 24.4 69 20.6 79 79 VRB 3 6 30.17 1022 10 16 0.00 0.00
9:52 am 09:52 Partly Cloudy 79 26.1 69 20.6 72 72 SSE 5 7 30.18 1022 10 16 0.00 0.00
10:52 am 10:52 Partly Cloudy 82 27.8 68 20 63 63 S 7 11 30.18 1022 10 16 0.00 0.00
11:52 am 11:52 Partly Cloudy 85 29.4 67 19.4 55 55 S 9 15 30.17 1022 10 16 0.00 0.00
12:52 pm 12:52 Mostly Sunny 85 29.4 68 20 57 57 S 8 13 30.16 1021 10 16 0.00 0.00
1:52 pm 13:52 Mostly Sunny 86 30 66 18.9 51 51 S 7 11 30.14 1021 10 16 0.00 0.00
2:52 pm 14:52 Partly Cloudy 88 31.1 67 19.4 50 50 SSW 8 13 30.13 1020 10 16 0.00 0.00
3:52 pm 15:52 Partly Cloudy 89 31.7 67 19.4 48 48 S 9 15 30.12 1020 10 16 0.00 0.00
4:52 pm 16:52 Mostly Cloudy 88 31.1 68 20 52 52 SSE 8 13 30.11 1020 10 16 0.00 0.00
5:52 pm 17:52 Partly Cloudy 86 30 66 18.9 51 51 SSE 12 19 30.11 1020 10 16 0.00 0.00
6:52 pm 18:52 Partly Cloudy 84 28.9 67 19.4 57 57 SSE 9 15 30.10 1019 10 16 0.00 0.00
7:52 pm 19:52 Mostly Cloudy 83 28.3 67 19.4 59 59 S 10 17 30.11 1020 10 16 0.00 0.00
8:52 pm 20:52 Partly Cloudy 81 27.2 66 18.9 61 61 SSE 8 13 30.11 1020 10 16 0.00 0.00
9:52 pm 21:52 Partly Cloudy 79 26.1 67 19.4 67 67 SSE 8 13 30.12 1020 10 16 0.00 0.00
10:52 pm 22:52 Partly Cloudy 77 25 69 20.6 77 77 S 6 9 30.12 1020 10 16 0.00 0.00
11:52 pm 23:52 Mostly Clear 77 25 70 21.1 79 79 S 9 15 30.12 1020 10 16 0.00 0.00

Powered by AerisWeather